"SCET";"TARGET";"ELECTRON_DENSITY";"ERROR_FLAG";"ELECTRON_DENSITY_ERROR";"FREQ_FCE";"MEASURED_VALUE";"MEASURED_ITEM";"FREQ_PLASMA";"FREQ_UPPER_HYBRID";"FREQ_R_EQUALS_ZERO";"FREQ_L_EQUALS_ZERO";"ORBIT_NUMBER";"SATURN_RADIUS";"SATURN_IAU_LONGITUDE";"SATURN_SLS4_S_LONGITUDE";"SATURN_SLS4_N_LONGITUDE";"SATURN_SLS5_S_LONGITUDE";"SATURN_SLS5_N_LONGITUDE";"SATURN_LOCAL_TIME";"SATURN_KRONOGRAPHIC_LATITUDE";"SATURN_MAGNETIC_LATITUDE";"SATURN_L";"SATURN_L_OFFSET";"SATURN_SOLAR_EQUATORIAL_X";"SATURN_SOLAR_EQUATORIAL_Y";"SATURN_SOLAR_EQUATORIAL_Z";"SATURN_ALTITUDE";"ENCELADUS_ENCOUNTER_NUMBER";"ENCELADUS_RADIUS";"ENCELADUS_COROTATIONAL_X";"ENCELADUS_COROTATIONAL_Y";"ENCELADUS_COROTATIONAL_Z";"ENCELADUS_TRUE_ANOMALY";"ENCELADUS_PERIAPSIS_TIME";"JUPITER_RADIUS";"JUPITER_SYSTEMIII_LONGITUDE";"JUPITER_MAGNETIC_LATITUDE";"JUPITER_MAGNETIC_LOCAL_TIME";"JUPITER_L";"IO_PHASE";"EARTH_RADIUS";"EARTH_MAGNETIC_LATITUDE";"EARTH_LOCAL_TIME";"EARTH_L"
"[UTC]";"[0=Saturn, 1=Enceladus, 2=Jupiter, 3=Earth]";"[cm-3]";"[0=automated, 1=manual]";"[normalized density error]";"[Hz]";"[Hz]";"[0=upper hybrid frequency, 1=plasma frequency cutoff]";"[Hz]";"[Hz]";"[Hz]";"[Hz}";"[0, A, B, C, 3, 4, ... , 292, 293]";"[Rs where 1Rs=60268km]";"[degrees]";"[degrees]";"[degrees]";"[degrees]";"[degrees]";"[hours]";"[degrees]";"[degrees where offset=2293km north]";"[Rs where 1Rs=60268km]";"[Rs where 1Rs=60268km and offset=2293km north]";"[Rs where 1Rs=60268km]";"[Rs where 1Rs=60268km]";"[Rs where 1Rs=60268km]";"[km where ellipsoid a,b=60268km and c=54364km]";"[E0, E1, E2, ... , E21, E22]";"[Renc where 1Renc=252.1km]";"[Renc where 1Renc=252.1km]";"[Renc where 1Renc=252.1km]";"[Renc where 1Renc=252.1km]";"[degrees]";"[UTC]";"[Rj where 1Rj=71492km]";"[degrees]";"[degrees using JRM09 model]";"[hours using JRM09 model]";"[Rj where 1Rj=71492km]";"[degrees]";"[Re where 1Re=6378.1366km]";"[degrees]";"[hours]";"[Re where 1Re=6378.1366km]"
2005-03-29T14:56:09.077Z;0;2.2830e+01;0;     0.203;  1559.376;  42939.492; 0;  42911.168;  42939.492;  43697.938;  42138.562;  5;   6.808; 204.428;  20.937;;  24.601; 238.575;  13.548;  -0.271;  -0.591;   6.808;   6.801;   6.256;   2.685;  -0.032;;;;;;;;;;;;;;;;;;
2005-03-29T14:56:17.077Z;0;2.1110e+01;0;     0.204;  1559.376;  41286.422; 0;  41256.961;  41286.422;  42044.016;  40484.641;  5;   6.807; 204.493;  21.000;;  24.666; 238.640;  13.549;  -0.271;  -0.591;   6.807;   6.800;   6.255;   2.686;  -0.032;;;;;;;;;;;;;;;;;;
2005-03-29T14:56:25.077Z;0;2.2410e+01;0;     0.222;  1559.376;  42537.039; 0;  42508.445;  42537.039;  43295.285;  41735.910;  5;   6.806; 204.557;  21.064;;  24.730; 238.706;  13.550;  -0.271;  -0.591;   6.806;   6.799;   6.253;   2.686;  -0.032;;;;;;;;;;;;;;;;;;
2005-03-29T14:56:33.077Z;0;2.3100e+01;0;     0.196;  1559.376;  43186.641; 0;  43158.480;  43186.641;  43945.207;  42385.832;  5;   6.805; 204.622;  21.128;;  24.794; 238.771;  13.550;  -0.270;  -0.591;   6.805;   6.798;   6.252;   2.687;  -0.032;;;;;;;;;;;;;;;;;;
2005-03-29T14:56:49.077Z;0;2.3150e+01;0;     0.205;  1559.376;  43230.465; 0;  43202.332;  43230.465;  43989.055;  42429.680;  5;   6.803; 204.751;  21.255;;  24.923; 238.902;  13.552;  -0.270;  -0.591;   6.803;   6.796;   6.249;   2.688;  -0.032;;;;;;;;;;;;;;;;;;
2005-03-29T14:56:57.077Z;0;2.2470e+01;0;     0.227;  1559.376;  42593.160; 0;  42564.605;  42593.160;  43351.434;  41792.059;  5;   6.801; 204.816;  21.318;;  24.987; 238.968;  13.552;  -0.270;  -0.591;   6.802;   6.795;   6.247;   2.689;  -0.032;;;;;;;;;;;;;;;;;;
2005-03-29T14:57:05.077Z;0;2.1110e+01;0;     0.204;  1559.376;  41286.422; 0;  41256.961;  41286.422;  42044.016;  40484.641;  5;   6.800; 204.880;  21.382;;  25.052; 239.033;  13.553;  -0.270;  -0.591;   6.801;   6.794;   6.246;   2.690;  -0.032;;;;;;;;;;;;;;;;;;
2005-03-29T14:57:13.077Z;0;2.0810e+01;0;     0.200;  1559.376;  40992.465; 0;  40962.793;  40992.465;  41749.902;  40190.527;  5;   6.799; 204.945;  21.446;;  25.116; 239.099;  13.554;  -0.270;  -0.591;   6.799;   6.793;   6.244;   2.691;  -0.032;;;;;;;;;;;;;;;;;;
2005-03-29T14:57:21.077Z;0;2.0900e+01;0;     0.192;  1559.376;  41081.395; 0;  41051.789;  41081.395;  41838.879;  40279.504;  5;   6.798; 205.009;  21.509;;  25.181; 239.164;  13.555;  -0.270;  -0.591;   6.798;   6.791;   6.243;   2.691;  -0.032;;;;;;;;;;;;;;;;;;
2005-03-29T14:57:37.077Z;0;2.1040e+01;0;     0.197;  1576.428;  41223.629; 0;  41193.477;  41223.629;  41989.230;  40412.801;  5;   6.796; 205.139;  21.637;;  25.310; 239.295;  13.556;  -0.270;  -0.591;   6.796;   6.789;   6.240;   2.693;  -0.032;;;;;;;;;;;;;;;;;;
2005-03-29T14:57:45.077Z;0;2.1160e+01;0;     0.200;  1576.428;  41340.859; 0;  41310.793;  41340.859;  42106.523;  40530.098;  5;   6.795; 205.203;  21.700;;  25.374; 239.360;  13.557;  -0.270;  -0.591;   6.795;   6.788;   6.238;   2.693;  -0.032;;;;;;;;;;;;;;;;;;
2005-03-29T14:57:53.077Z;0;2.2820e+01;0;     0.208;  1576.428;  42926.074; 0;  42897.117;  42926.074;  43692.574;  42116.145;  5;   6.794; 205.268;  21.764;;  25.439; 239.426;  13.557;  -0.270;  -0.591;   6.794;   6.787;   6.237;   2.694;  -0.032;;;;;;;;;;;;;;;;;;
2005-03-29T14:58:01.077Z;0;2.3260e+01;0;     0.197;  1576.428;  43336.809; 0;  43308.125;  43336.809;  44103.512;  42527.086;  5;   6.793; 205.332;  21.827;;  25.503; 239.491;  13.558;  -0.270;  -0.591;   6.793;   6.786;   6.235;   2.695;  -0.032;;;;;;;;;;;;;;;;;;
2005-03-29T14:58:09.076Z;0;2.3610e+01;0;     0.183;  1576.428;  43661.168; 0;  43632.699;  43661.168;  44428.031;  42851.605;  5;   6.791; 205.397;  21.891;;  25.568; 239.557;  13.559;  -0.270;  -0.591;   6.792;   6.785;   6.234;   2.695;  -0.032;;;;;;;;;;;;;;;;;;
2005-03-29T15:10:09.072Z;0;2.3550e+01;0;     0.195;  1661.632;  43608.000; 0;  43576.332;  43608.000;  44415.066;  42753.434;  5;   6.691; 211.190;  27.600;;  31.332; 245.334;  13.623;  -0.270;  -0.595;   6.691;   6.685;   6.096;   2.758;  -0.031;;;;;;;;;;;;;;;;;;
2005-03-29T15:10:25.072Z;0;2.3490e+01;0;     0.193;  1661.632;  43553.672; 0;  43521.965;  43553.672;  44360.707;  42699.078;  5;   6.689; 211.319;  27.727;;  31.459; 245.463;  13.624;  -0.270;  -0.595;   6.689;   6.682;   6.093;   2.760;  -0.031;;;;;;;;;;;;;;;;;;
2005-03-29T15:10:33.072Z;0;2.3680e+01;0;     0.192;  1661.632;  43731.676; 0;  43700.098;  43731.676;  44538.809;  42877.176;  5;   6.688; 211.383;  27.790;;  31.522; 245.527;  13.625;  -0.270;  -0.596;   6.688;   6.681;   6.092;   2.761;  -0.031;;;;;;;;;;;;;;;;;;
2005-03-29T15:10:41.072Z;0;2.3410e+01;0;     0.193;  1661.632;  43481.387; 0;  43449.625;  43481.387;  44288.383;  42626.754;  5;   6.687; 211.447;  27.853;;  31.585; 245.592;  13.626;  -0.270;  -0.596;   6.687;   6.680;   6.090;   2.761;  -0.031;;;;;;;;;;;;;;;;;;
2005-03-29T15:10:49.072Z;0;2.3570e+01;0;     0.186;  1661.632;  43629.859; 0;  43598.207;  43629.859;  44436.938;  42775.305;  5;   6.686; 211.511;  27.916;;  31.648; 245.657;  13.627;  -0.270;  -0.596;   6.686;   6.679;   6.088;   2.762;  -0.031;;;;;;;;;;;;;;;;;;
2005-03-29T15:10:57.072Z;0;2.4070e+01;0;     0.187;  1661.632;  44092.141; 0;  44060.820;  44092.141;  44899.469;  43237.836;  5;   6.684; 211.576;  27.980;;  31.711; 245.721;  13.627;  -0.270;  -0.596;   6.685;   6.678;   6.087;   2.763;  -0.031;;;;;;;;;;;;;;;;;;
2005-03-29T15:11:13.071Z;0;2.3720e+01;0;     0.179;  1661.632;  43767.949; 0;  43736.395;  43767.949;  44575.102;  42913.469;  5;   6.682; 211.704;  28.106;;  31.837; 245.850;  13.629;  -0.270;  -0.596;   6.682;   6.676;   6.084;   2.764;  -0.031;;;;;;;;;;;;;;;;;;
2005-03-29T15:11:21.071Z;0;2.4230e+01;0;     0.175;  1661.632;  44231.035; 0;  44199.812;  44231.035;  45038.438;  43376.805;  5;   6.681; 211.768;  28.169;;  31.900; 245.915;  13.629;  -0.270;  -0.596;   6.681;   6.675;   6.082;   2.765;  -0.031;;;;;;;;;;;;;;;;;;
2005-03-29T15:11:29.071Z;0;2.4160e+01;0;     0.186;  1661.632;  44166.410; 0;  44135.141;  44166.410;  44973.777;  43312.145;  5;   6.680; 211.832;  28.233;;  31.963; 245.980;  13.630;  -0.270;  -0.596;   6.680;   6.673;   6.081;   2.765;  -0.031;;;;;;;;;;;;;;;;;;
2005-03-29T15:11:37.071Z;0;2.3950e+01;0;     0.186;  1665.720;  43975.621; 0;  43944.062;  43975.621;  44784.812;  43119.094;  5;   6.679; 211.897;  28.296;;  32.025; 246.044;  13.631;  -0.270;  -0.596;   6.679;   6.672;   6.079;   2.766;  -0.031;;;;;;;;;;;;;;;;;;
2005-03-29T15:11:45.071Z;0;2.3800e+01;0;     0.179;  1665.720;  43837.801; 0;  43806.145;  43837.801;  44646.918;  42981.199;  5;   6.678; 211.961;  28.359;;  32.088; 246.109;  13.632;  -0.270;  -0.596;   6.678;   6.671;   6.078;   2.767;  -0.031;;;;;;;;;;;;;;;;;;
2005-03-29T15:12:01.071Z;0;2.3910e+01;0;     0.186;  1665.720;  43942.605; 0;  43911.023;  43942.605;  44751.781;  43086.062;  5;   6.676; 212.089;  28.486;;  32.214; 246.238;  13.633;  -0.270;  -0.596;   6.676;   6.669;   6.075;   2.768;  -0.031;;;;;;;;;;;;;;;;;;
2005-03-29T15:12:09.071Z;0;2.3860e+01;0;     0.189;  1665.720;  43898.367; 0;  43866.754;  43898.367;  44707.520;  43041.797;  5;   6.674; 212.153;  28.549;;  32.277; 246.303;  13.634;  -0.270;  -0.596;   6.675;   6.668;   6.073;   2.769;  -0.031;;;;;;;;;;;;;;;;;;
2005-03-29T15:12:17.071Z;0;2.3970e+01;0;     0.189;  1665.720;  43999.488; 0;  43967.945;  43999.488;  44808.695;  43142.973;  5;   6.673; 212.217;  28.612;;  32.340; 246.368;  13.635;  -0.270;  -0.596;   6.673;   6.667;   6.071;   2.770;  -0.031;;;;;;;;;;;;;;;;;;
2005-03-29T15:12:25.071Z;0;2.4450e+01;0;     0.189;  1665.720;  44435.129; 0;  44403.898;  44435.129;  45244.566;  43578.848;  5;   6.672; 212.281;  28.675;;  32.402; 246.432;  13.635;  -0.270;  -0.596;   6.672;   6.666;   6.070;   2.770;  -0.031;;;;;;;;;;;;;;;;;;
2005-03-29T15:12:33.071Z;0;2.4360e+01;0;     0.193;  1676.584;  44351.590; 0;  44319.891;  44351.590;  45166.109;  43489.523;  5;   6.671; 212.346;  28.738;;  32.465; 246.497;  13.636;  -0.270;  -0.596;   6.671;   6.664;   6.068;   2.771;  -0.031;;;;;;;;;;;;;;;;;;
2005-03-29T15:12:49.071Z;0;2.3720e+01;0;     0.192;  1676.584;  43771.871; 0;  43739.750;  43771.871;  44586.074;  42909.492;  5;   6.669; 212.474;  28.865;;  32.591; 246.627;  13.637;  -0.269;  -0.596;   6.669;   6.662;   6.065;   2.772;  -0.031;;;;;;;;;;;;;;;;;;
2005-03-29T15:12:57.071Z;0;2.3790e+01;0;     0.185;  1676.584;  43834.102; 0;  43802.027;  43834.102;  44648.340;  42971.754;  5;   6.668; 212.538;  28.928;;  32.653; 246.691;  13.638;  -0.269;  -0.596;   6.668;   6.661;   6.064;   2.773;  -0.031;;;;;;;;;;;;;;;;;;
2005-03-29T15:13:05.071Z;0;2.3940e+01;0;     0.180;  1676.584;  43969.609; 0;  43937.633;  43969.609;  44783.922;  43107.336;  5;   6.667; 212.602;  28.991;;  32.716; 246.756;  13.639;  -0.269;  -0.596;   6.667;   6.660;   6.062;   2.774;  -0.031;;;;;;;;;;;;;;;;;;
2005-03-29T15:13:13.071Z;0;2.3920e+01;0;     0.192;  1676.584;  43948.965; 0;  43916.973;  43948.965;  44763.266;  43086.684;  5;   6.665; 212.666;  29.054;;  32.779; 246.821;  13.640;  -0.269;  -0.596;   6.666;   6.659;   6.061;   2.774;  -0.031;;;;;;;;;;;;;;;;;;
2005-03-29T15:13:21.071Z;0;2.4160e+01;0;     0.191;  1676.584;  44175.074; 0;  44143.246;  44175.074;  44989.496;  43312.914;  5;   6.664; 212.730;  29.118;;  32.841; 246.886;  13.640;  -0.269;  -0.596;   6.665;   6.658;   6.059;   2.775;  -0.031;;;;;;;;;;;;;;;;;;
2005-03-29T15:13:37.071Z;0;2.4210e+01;0;     0.189;  1685.544;  44216.812; 0;  44184.676;  44216.812;  45035.484;  43349.938;  5;   6.662; 212.859;  29.244;;  32.966; 247.016;  13.642;  -0.269;  -0.597;   6.662;   6.656;   6.056;   2.776;  -0.031;;;;;;;;;;;;;;;;;;
2005-03-29T15:13:45.070Z;0;2.4000e+01;0;     0.180;  1685.544;  44029.414; 0;  43997.141;  44029.414;  44847.980;  43162.438;  5;   6.661; 212.923;  29.307;;  33.029; 247.081;  13.643;  -0.269;  -0.597;   6.661;   6.654;   6.054;   2.777;  -0.031;;;;;;;;;;;;;;;;;;
2005-03-29T15:13:53.070Z;0;2.3980e+01;0;     0.184;  1685.544;  44011.371; 0;  43979.082;  44011.371;  44829.930;  43144.387;  5;   6.660; 212.987;  29.370;;  33.091; 247.145;  13.643;  -0.269;  -0.597;   6.660;   6.653;   6.053;   2.778;  -0.031;;;;;;;;;;;;;;;;;;
2005-03-29T15:14:01.070Z;0;2.4220e+01;0;     0.184;  1685.544;  44230.012; 0;  44197.883;  44230.012;  45048.691;  43363.145;  5;   6.659; 213.051;  29.434;;  33.154; 247.210;  13.644;  -0.269;  -0.597;   6.659;   6.652;   6.051;   2.779;  -0.031;;;;;;;;;;;;;;;;;;
2005-03-29T15:14:09.070Z;0;2.4450e+01;0;     0.178;  1685.544;  44433.266; 0;  44401.285;  44433.266;  45252.055;  43566.508;  5;   6.658; 213.115;  29.497;;  33.216; 247.275;  13.645;  -0.269;  -0.597;   6.658;   6.651;   6.050;   2.779;  -0.031;;;;;;;;;;;;;;;;;;
2005-03-29T15:14:25.070Z;0;2.4010e+01;0;     0.176;  1685.544;  44038.117; 0;  44005.848;  44038.117;  44856.691;  43171.145;  5;   6.655; 213.243;  29.623;;  33.341; 247.405;  13.646;  -0.269;  -0.597;   6.656;   6.649;   6.047;   2.781;  -0.031;;;;;;;;;;;;;;;;;;
2005-03-29T15:14:33.070Z;0;2.4180e+01;0;     0.182;  1691.004;  44191.164; 0;  44158.797;  44191.164;  45012.395;  43321.391;  5;   6.654; 213.307;  29.686;;  33.404; 247.470;  13.647;  -0.269;  -0.597;   6.654;   6.648;   6.045;   2.781;  -0.031;;;;;;;;;;;;;;;;;;
2005-03-29T15:14:41.070Z;0;2.4460e+01;0;     0.180;  1691.004;  44446.910; 0;  44414.730;  44446.910;  45268.281;  43577.277;  5;   6.653; 213.372;  29.749;;  33.466; 247.535;  13.648;  -0.269;  -0.597;   6.653;   6.647;   6.044;   2.782;  -0.031;;;;;;;;;;;;;;;;;;
2005-03-29T15:14:49.070Z;0;2.4000e+01;0;     0.181;  1691.004;  44029.426; 0;  43996.941;  44029.426;  44850.566;  43159.562;  5;   6.652; 213.436;  29.812;;  33.529; 247.600;  13.648;  -0.269;  -0.597;   6.652;   6.646;   6.042;   2.783;  -0.031;;;;;;;;;;;;;;;;;;
2005-03-29T15:14:57.070Z;0;2.3950e+01;0;     0.172;  1691.004;  43978.562; 0;  43946.039;  43978.562;  44799.676;  43108.672;  5;   6.651; 213.500;  29.876;;  33.591; 247.665;  13.649;  -0.269;  -0.597;   6.651;   6.644;   6.041;   2.783;  -0.031;;;;;;;;;;;;;;;;;;
2005-03-29T15:15:13.070Z;0;2.4400e+01;0;     0.186;  1691.004;  44392.852; 0;  44360.633;  44392.852;  45214.191;  43523.188;  5;   6.649; 213.628;  30.002;;  33.716; 247.795;  13.651;  -0.269;  -0.597;   6.649;   6.642;   6.037;   2.785;  -0.031;;;;;;;;;;;;;;;;;;
2005-03-29T15:15:21.070Z;0;2.4290e+01;0;     0.172;  1691.004;  44294.434; 0;  44262.145;  44294.434;  45115.719;  43424.715;  5;   6.648; 213.692;  30.065;;  33.778; 247.860;  13.651;  -0.269;  -0.597;   6.648;   6.641;   6.036;   2.785;  -0.031;;;;;;;;;;;;;;;;;;
2005-03-29T15:15:29.070Z;0;2.4210e+01;0;     0.171;  1691.004;  44215.176; 0;  44182.828;  44215.176;  45036.418;  43345.414;  5;   6.647; 213.756;  30.128;;  33.840; 247.925;  13.652;  -0.269;  -0.597;   6.647;   6.640;   6.034;   2.786;  -0.031;;;;;;;;;;;;;;;;;;
2005-03-29T15:15:37.070Z;0;2.4250e+01;0;     0.184;  1700.636;  44256.168; 0;  44223.480;  44256.168;  45081.973;  43381.336;  5;   6.645; 213.820;  30.191;;  33.903; 247.990;  13.653;  -0.269;  -0.597;   6.646;   6.639;   6.033;   2.787;  -0.031;;;;;;;;;;;;;;;;;;
2005-03-29T15:15:45.070Z;0;2.4080e+01;0;     0.173;  1700.636;  44102.922; 0;  44070.121;  44102.922;  44928.641;  43228.004;  5;   6.644; 213.884;  30.254;;  33.965; 248.055;  13.654;  -0.269;  -0.597;   6.644;   6.638;   6.031;   2.788;  -0.031;;;;;;;;;;;;;;;;;;
2005-03-29T15:16:01.070Z;0;2.4160e+01;0;     0.171;  1700.636;  44167.988; 0;  44135.234;  44167.988;  44993.742;  43293.109;  5;   6.642; 214.012;  30.381;;  34.089; 248.186;  13.655;  -0.269;  -0.597;   6.642;   6.636;   6.028;   2.789;  -0.031;;;;;;;;;;;;;;;;;;
2005-03-29T15:26:57.065Z;0;2.4520e+01;0;     0.177;  1805.160;  44499.777; 0;  44463.148;  44499.777;  45374.887;  43569.730;  5;   6.551; 219.252;  35.543;;  39.234; 253.514;  13.716;  -0.268;  -0.601;   6.551;   6.544;   5.900;   2.845;  -0.031;;;;;;;;;;;;;;;;;;
2005-03-29T15:27:13.065Z;0;2.6700e+01;0;     0.209;  1805.160;  46432.727; 0;  46397.625;  46432.727;  47308.980;  45503.820;  5;   6.548; 219.379;  35.669;;  39.361; 253.643;  13.718;  -0.268;  -0.601;   6.548;   6.542;   5.897;   2.847;  -0.031;;;;;;;;;;;;;;;;;;
2005-03-29T15:27:21.065Z;0;2.4900e+01;0;     0.181;  1805.160;  44846.594; 0;  44810.250;  44846.594;  45721.918;  43916.758;  5;   6.547; 219.443;  35.732;;  39.425; 253.708;  13.718;  -0.268;  -0.601;   6.547;   6.541;   5.896;   2.847;  -0.031;;;;;;;;;;;;;;;;;;
2005-03-29T15:27:29.065Z;0;2.6830e+01;0;     0.217;  1805.160;  46547.645; 0;  46512.629;  46547.645;  47423.965;  45618.805;  5;   6.546; 219.507;  35.795;;  39.488; 253.773;  13.719;  -0.268;  -0.601;   6.546;   6.540;   5.894;   2.848;  -0.031;;;;;;;;;;;;;;;;;;
2005-03-29T15:27:37.065Z;0;2.7710e+01;0;     0.205;  1800.932;  47304.418; 0;  47270.125;  47304.418;  48179.164;  46378.234;  5;   6.545; 219.571;  35.857;;  39.552; 253.837;  13.720;  -0.268;  -0.601;   6.545;   6.539;   5.893;   2.849;  -0.031;;;;;;;;;;;;;;;;;;
2005-03-29T15:27:45.065Z;0;2.4950e+01;0;     0.185;  1800.932;  44887.289; 0;  44851.148;  44887.289;  45760.652;  43959.719;  5;   6.544; 219.634;  35.920;;  39.616; 253.902;  13.721;  -0.268;  -0.601;   6.544;   6.537;   5.891;   2.849;  -0.031;;;;;;;;;;;;;;;;;;
2005-03-29T15:28:01.065Z;0;3.1570e+01;0;     0.167;  1800.932;  50485.230; 0;  50453.098;  50485.230;  51361.598;  49560.668;  5;   6.542; 219.762;  36.046;;  39.743; 254.031;  13.722;  -0.268;  -0.602;   6.542;   6.535;   5.888;   2.851;  -0.031;;;;;;;;;;;;;;;;;;
2005-03-29T15:28:09.065Z;0;2.5070e+01;0;     0.191;  1800.932;  45001.941; 0;  44965.891;  45001.941;  45875.371;  44074.441;  5;   6.541; 219.826;  36.109;;  39.807; 254.096;  13.723;  -0.268;  -0.602;   6.541;   6.534;   5.886;   2.851;  -0.031;;;;;;;;;;;;;;;;;;
2005-03-29T15:28:17.065Z;0;2.4680e+01;0;     0.171;  1800.932;  44650.406; 0;  44614.070;  44650.406;  45523.625;  43722.691;  5;   6.539; 219.889;  36.171;;  39.870; 254.160;  13.724;  -0.268;  -0.602;   6.540;   6.533;   5.885;   2.852;  -0.031;;;;;;;;;;;;;;;;;;
2005-03-29T15:28:25.065Z;0;2.6110e+01;0;     0.197;  1800.932;  45921.473; 0;  45886.145;  45921.473;  46795.445;  44994.512;  5;   6.538; 219.953;  36.234;;  39.934; 254.225;  13.724;  -0.268;  -0.602;   6.538;   6.532;   5.883;   2.853;  -0.031;;;;;;;;;;;;;;;;;;
2005-03-29T15:28:33.065Z;0;2.5630e+01;0;     0.194;  1815.212;  45498.500; 0;  45462.277;  45498.500;  46378.941;  44563.727;  5;   6.537; 220.017;  36.297;;  39.998; 254.290;  13.725;  -0.268;  -0.602;   6.537;   6.531;   5.882;   2.853;  -0.031;;;;;;;;;;;;;;;;;;
2005-03-29T15:28:49.065Z;0;2.4910e+01;0;     0.181;  1815.212;  44852.668; 0;  44815.922;  44852.668;  45732.719;  43917.504;  5;   6.535; 220.144;  36.422;;  40.126; 254.419;  13.727;  -0.268;  -0.602;   6.535;   6.529;   5.878;   2.855;  -0.031;;;;;;;;;;;;;;;;;;
2005-03-29T15:28:57.065Z;0;2.6010e+01;0;     0.200;  1815.212;  45830.078; 0;  45794.117;  45830.078;  46710.715;  44895.504;  5;   6.534; 220.208;  36.485;;  40.189; 254.484;  13.727;  -0.268;  -0.602;   6.534;   6.527;   5.877;   2.855;  -0.031;;;;;;;;;;;;;;;;;;
2005-03-29T15:29:05.065Z;0;2.4720e+01;0;     0.182;  1815.212;  44680.367; 0;  44643.480;  44680.367;  45560.309;  43745.098;  5;   6.533; 220.271;  36.548;;  40.253; 254.548;  13.728;  -0.268;  -0.602;   6.533;   6.526;   5.875;   2.856;  -0.031;;;;;;;;;;;;;;;;;;
2005-03-29T15:29:13.065Z;0;2.4750e+01;0;     0.176;  1815.212;  44714.719; 0;  44677.859;  44714.719;  45594.684;  43779.469;  5;   6.532; 220.335;  36.611;;  40.317; 254.613;  13.729;  -0.268;  -0.602;   6.532;   6.525;   5.874;   2.857;  -0.031;;;;;;;;;;;;;;;;;;
2005-03-29T15:29:21.064Z;0;2.5390e+01;0;     0.186;  1815.212;  45282.996; 0;  45246.598;  45282.996;  46163.309;  44348.094;  5;   6.530; 220.399;  36.673;;  40.381; 254.677;  13.730;  -0.268;  -0.602;   6.531;   6.524;   5.872;   2.857;  -0.031;;;;;;;;;;;;;;;;;;
2005-03-29T15:29:37.064Z;0;2.4960e+01;0;     0.182;  1827.560;  44902.438; 0;  44865.230;  44902.438;  45788.316;  43960.754;  5;   6.528; 220.526;  36.799;;  40.509; 254.807;  13.731;  -0.268;  -0.602;   6.528;   6.522;   5.869;   2.859;  -0.031;;;;;;;;;;;;;;;;;;
2005-03-29T15:29:45.064Z;0;2.4610e+01;0;     0.177;  1827.560;  44584.562; 0;  44547.090;  44584.562;  45470.242;  43642.680;  5;   6.527; 220.590;  36.861;;  40.573; 254.871;  13.732;  -0.268;  -0.602;   6.527;   6.521;   5.867;   2.860;  -0.031;;;;;;;;;;;;;;;;;;
2005-03-29T15:29:53.064Z;0;2.5360e+01;0;     0.193;  1827.560;  45254.906; 0;  45217.988;  45254.906;  46141.000;  44313.441;  5;   6.526; 220.653;  36.924;;  40.636; 254.936;  13.733;  -0.268;  -0.602;   6.526;   6.520;   5.866;   2.860;  -0.031;;;;;;;;;;;;;;;;;;
2005-03-29T15:30:01.064Z;0;2.5320e+01;0;     0.189;  1827.560;  45218.984; 0;  45182.039;  45218.984;  46105.059;  44277.496;  5;   6.525; 220.717;  36.987;;  40.700; 255.000;  13.734;  -0.268;  -0.602;   6.525;   6.518;   5.864;   2.861;  -0.031;;;;;;;;;;;;;;;;;;
2005-03-29T15:30:09.064Z;0;2.5110e+01;0;     0.181;  1827.560;  45035.910; 0;  44998.812;  45035.910;  45921.871;  44094.312;  5;   6.524; 220.781;  37.050;;  40.763; 255.064;  13.734;  -0.268;  -0.602;   6.524;   6.517;   5.863;   2.862;  -0.031;;;;;;;;;;;;;;;;;;
2005-03-29T15:30:25.064Z;0;2.6810e+01;0;     0.203;  1827.560;  46535.523; 0;  46499.625;  46535.523;  47422.383;  45594.820;  5;   6.522; 220.908;  37.175;;  40.888; 255.192;  13.736;  -0.268;  -0.602;   6.522;   6.515;   5.860;   2.863;  -0.031;;;;;;;;;;;;;;;;;;
2005-03-29T15:30:33.064Z;0;3.2260e+01;0;     0.177;  1834.196;  51034.906; 0;  51001.934;  51034.906;  51927.277;  50093.082;  5;   6.520; 220.972;  37.238;;  40.950; 255.256;  13.737;  -0.268;  -0.602;   6.521;   6.514;   5.858;   2.864;  -0.031;;;;;;;;;;;;;;;;;;
2005-03-29T15:30:57.064Z;0;2.5350e+01;0;     0.188;  1834.196;  45250.652; 0;  45213.465;  45250.652;  46139.863;  44305.664;  5;   6.517; 221.163;  37.426;;  41.138; 255.447;  13.739;  -0.268;  -0.603;   6.517;   6.511;   5.853;   2.866;  -0.031;;;;;;;;;;;;;;;;;;
2005-03-29T15:31:13.064Z;0;2.5390e+01;0;     0.185;  1834.196;  45282.828; 0;  45245.664;  45282.828;  46172.059;  44337.859;  5;   6.515; 221.290;  37.551;;  41.263; 255.575;  13.740;  -0.268;  -0.603;   6.515;   6.508;   5.850;   2.867;  -0.030;;;;;;;;;;;;;;;;;;
2005-03-29T15:31:21.064Z;0;2.5460e+01;0;     0.179;  1834.196;  45349.406; 0;  45312.297;  45349.406;  46238.676;  44404.480;  5;   6.514; 221.353;  37.614;;  41.325; 255.638;  13.741;  -0.268;  -0.603;   6.514;   6.507;   5.849;   2.868;  -0.030;;;;;;;;;;;;;;;;;;
2005-03-29T15:31:29.064Z;0;2.6760e+01;0;     0.200;  1834.196;  46488.020; 0;  46451.820;  46488.020;  47377.973;  45543.773;  5;   6.513; 221.417;  37.677;;  41.387; 255.702;  13.742;  -0.268;  -0.603;   6.513;   6.506;   5.847;   2.868;  -0.030;;;;;;;;;;;;;;;;;;
2005-03-29T15:31:37.064Z;0;2.7410e+01;0;     0.188;  1841.280;  47047.531; 0;  47011.488;  47047.531;  47941.141;  46099.859;  5;   6.512; 221.481;  37.739;;  41.450; 255.766;  13.743;  -0.268;  -0.603;   6.512;   6.505;   5.845;   2.869;  -0.030;;;;;;;;;;;;;;;;;;
2005-03-29T15:31:45.064Z;0;2.5090e+01;0;     0.187;  1841.280;  45016.109; 0;  44978.438;  45016.109;  45908.500;  44067.219;  5;   6.510; 221.544;  37.802;;  41.512; 255.829;  13.743;  -0.268;  -0.603;   6.511;   6.504;   5.844;   2.870;  -0.030;;;;;;;;;;;;;;;;;;
2005-03-29T15:32:01.063Z;0;2.4870e+01;0;     0.179;  1841.280;  44819.309; 0;  44781.469;  44819.309;  45711.574;  43870.293;  5;   6.508; 221.671;  37.927;;  41.636; 255.957;  13.745;  -0.268;  -0.603;   6.508;   6.502;   5.841;   2.871;  -0.030;;;;;;;;;;;;;;;;;;
2005-03-29T15:32:09.063Z;0;2.5240e+01;0;     0.182;  1841.280;  45152.246; 0;  45114.688;  45152.246;  46044.719;  44203.441;  5;   6.507; 221.735;  37.990;;  41.699; 256.020;  13.746;  -0.268;  -0.603;   6.507;   6.501;   5.839;   2.872;  -0.030;;;;;;;;;;;;;;;;;;
2005-03-29T15:32:17.063Z;0;2.4520e+01;0;     0.171;  1841.280;  44505.863; 0;  44467.758;  44505.863;  45397.930;  43556.648;  5;   6.506; 221.799;  38.052;;  41.761; 256.084;  13.747;  -0.268;  -0.603;   6.506;   6.500;   5.838;   2.872;  -0.030;;;;;;;;;;;;;;;;;;